Location: Robledo de Chavela
(40.5014°N, 4.2377°W)
Time: 17:51:58
(UTC+00:00)

Cosmos 1825 - Pass Details

Date: 18 April 2024
Orbit: 443 x 445 km, 82.5° (Epoch: 23 May)

Event Time Altitude Azimuth Distance (km) Brightness Sun altitude
Rises 19:24:07 0° 349° (N) 2,445 6.1 -5.3°
Reaches altitude 10° 19:26:11 10° 346° (NNW) 1,570 5.2 -5.6°
Maximum altitude 19:29:34 64° 265° (W) 496 2.4 -6.2°
Drops below altitude 10° 19:32:56 10° 183° (S) 1,559 4.5 -6.8°
Sets 19:34:59 0° 180° (S) 2,426 5.4 -7.2°
